owner,sensor,date,latitude,longitude,vertical_datum,sea_water_practical_salinity,qcFlag 
DISL,ioos:station:DISL:MHPA:1,2012-06-01T00:00:00Z,30.6671,-87.9365,3.658,0.98,1111122 
DISL,ioos:station:DISL:MHPA:1,2012-06-01T00:30:00Z,30.6671,-87.9365,3.403,0.99,1111122 
DISL,ioos:station:DISL:MHPA:1,2012-06-01T01:00:00Z,30.6671,-87.9365,3.4,0.99,1111122 
DISL,ioos:station:DISL:MHPA:1,2012-06-01T01:30:00Z,30.6671,-87.9365,3.382,0.99,1111122 
DISL,ioos:station:DISL:MHPA:1,2012-06-01T02:00:00Z,30.6671,-87.9365,3.232,0.99,1111122 
DISL,ioos:station:DISL:MHPA:1,2012-06-01T02:30:00Z,30.6671,-87.9365,3.05,0.99,1111122 
DISL,ioos:station:DISL:MHPA:1,2012-06-01T03:00:00Z,30.6671,-87.9365,2.974,0.99,1111122 
DISL,ioos:station:DISL:MHPA:1,2012-06-01T03:30:00Z,30.6671,-87.9365,3.136,0.99,1111122 
DISL,ioos:station:DISL:MHPA:1,2012-06-01T04:00:00Z,30.6671,-87.9365,3.283,0.99,1111122 
DISL,ioos:station:DISL:MHPA:1,2012-06-01T04:30:00Z,30.6671,-87.9365,3.317,0.99,1111122 
DISL,ioos:station:DISL:MHPA:1,2012-06-01T05:00:00Z,30.6671,-87.9365,3.243,0.99,1111122 
DISL,ioos:station:DISL:MHPA:1,2012-06-01T05:30:00Z,30.6671,-87.9365,3.072,0.99,1111122 
DISL,ioos:station:DISL:MHPA:1,2012-06-01T06:00:00Z,30.6671,-87.9365,3.066,0.99,1111122 
DISL,ioos:station:DISL:MHPA:1,2012-06-01T06:30:00Z,30.6671,-87.9365,3.104,0.99,1111122 
DISL,ioos:station:DISL:MHPA:1,2012-06-01T07:00:00Z,30.6671,-87.9365,3.101,0.99,1111122 
DISL,ioos:station:DISL:MHPA:1,2012-06-01T07:30:00Z,30.6671,-87.9365,3.257,0.99,1111122 
DISL,ioos:station:DISL:MHPA:1,2012-06-01T08:00:00Z,30.6671,-87.9365,3.531,0.99,1111122 
DISL,ioos:station:DISL:MHPA:1,2012-06-01T08:30:00Z,30.6671,-87.9365,3.75,0.99,1111122 
DISL,ioos:station:DISL:MHPA:1,2012-06-01T09:00:00Z,30.6671,-87.9365,3.755,0.99,1111122 
DISL,ioos:station:DISL:MHPA:1,2012-06-01T09:30:00Z,30.6671,-87.9365,3.973,0.98,1111122 
DISL,ioos:station:DISL:MHPA:1,2012-06-01T10:00:00Z,30.6671,-87.9365,4.259,0.98,1111122 
DISL,ioos:station:DISL:MHPA:1,2012-06-01T10:30:00Z,30.6671,-87.9365,4.236,0.98,1111122 
DISL,ioos:station:DISL:MHPA:1,2012-06-01T11:00:00Z,30.6671,-87.9365,4.128,0.98,1111122 
DISL,ioos:station:DISL:MHPA:1,2012-06-01T11:30:00Z,30.6671,-87.9365,4.347,0.98,1111122 
DISL,ioos:station:DISL:MHPA:1,2012-06-01T12:00:00Z,30.6671,-87.9365,4.366,0.98,1111122 
DISL,ioos:station:DISL:MHPA:1,2012-06-01T12:30:00Z,30.6671,-87.9365,4.505,0.98,1111122 
DISL,ioos:station:DISL:MHPA:1,2012-06-01T13:00:00Z,30.6671,-87.9365,4.583,0.99,1111122 
DISL,ioos:station:DISL:MHPA:1,2012-06-01T13:30:00Z,30.6671,-87.9365,4.312,0.98,1111122 
DISL,ioos:station:DISL:MHPA:1,2012-06-01T14:00:00Z,30.6671,-87.9365,4.248,0.98,1111122 
DISL,ioos:station:DISL:MHPA:1,2012-06-01T14:30:00Z,30.6671,-87.9365,4.212,0.99,1111122 
DISL,ioos:station:DISL:MHPA:1,2012-06-01T15:00:00Z,30.6671,-87.9365,4.342,0.99,1111122 
DISL,ioos:station:DISL:MHPA:1,2012-06-01T15:30:00Z,30.6671,-87.9365,4.394,0.99,1111122 
DISL,ioos:station:DISL:MHPA:1,2012-06-01T16:00:00Z,30.6671,-87.9365,4.531,0.99,1111122 
DISL,ioos:station:DISL:MHPA:1,2012-06-01T16:30:00Z,30.6671,-87.9365,4.576,1.0,1111122 
DISL,ioos:station:DISL:MHPA:1,2012-06-01T17:00:00Z,30.6671,-87.9365,4.395,1.0,1111122 
DISL,ioos:station:DISL:MHPA:1,2012-06-01T17:30:00Z,30.6671,-87.9365,4.336,1.0,1111122 
DISL,ioos:station:DISL:MHPA:1,2012-06-01T18:00:00Z,30.6671,-87.9365,4.239,1.0,1111122 
DISL,ioos:station:DISL:MHPA:1,2012-06-01T18:30:00Z,30.6671,-87.9365,4.06,1.0,1111122 
DISL,ioos:station:DISL:MHPA:1,2012-06-01T19:00:00Z,30.6671,-87.9365,3.952,1.02,1111122 
DISL,ioos:station:DISL:MHPA:1,2012-06-01T19:30:00Z,30.6671,-87.9365,3.839,1.01,1111122 
DISL,ioos:station:DISL:MHPA:1,2012-06-01T20:00:00Z,30.6671,-87.9365,3.695,1.01,1111122 
DISL,ioos:station:DISL:MHPA:1,2012-06-01T20:30:00Z,30.6671,-87.9365,3.548,1.0,1111122 
DISL,ioos:station:DISL:MHPA:1,2012-06-01T21:00:00Z,30.6671,-87.9365,3.41,1.0,1111122 
DISL,ioos:station:DISL:MHPA:1,2012-06-01T21:30:00Z,30.6671,-87.9365,3.278,1.01,1111122 
DISL,ioos:station:DISL:MHPA:1,2012-06-01T22:00:00Z,30.6671,-87.9365,3.146,1.02,1111122 
DISL,ioos:station:DISL:MHPA:1,2012-06-01T22:30:00Z,30.6671,-87.9365,3.034,1.01,1111122 
DISL,ioos:station:DISL:MHPA:1,2012-06-01T23:00:00Z,30.6671,-87.9365,2.956,1.01,1111122 
DISL,ioos:station:DISL:MHPA:1,2012-06-01T23:30:00Z,30.6671,-87.9365,2.886,1.01,1111122 
DISL,ioos:station:DISL:MHPA:1,2012-06-02T00:00:00Z,30.6671,-87.9365,2.814,1.01,1111122 
DISL,ioos:station:DISL:MHPA:1,2012-06-02T00:30:00Z,30.6671,-87.9365,2.725,1.01,1111122 
DISL,ioos:station:DISL:MHPA:1,2012-06-02T01:00:00Z,30.6671,-87.9365,2.628,1.01,1111122 
DISL,ioos:station:DISL:MHPA:1,2012-06-02T01:30:00Z,30.6671,-87.9365,2.537,1.01,1111122 
DISL,ioos:station:DISL:MHPA:1,2012-06-02T02:00:00Z,30.6671,-87.9365,2.458,1.01,1111122 
DISL,ioos:station:DISL:MHPA:1,2012-06-02T02:30:00Z,30.6671,-87.9365,2.384,1.01,1111122 
DISL,ioos:station:DISL:MHPA:1,2012-06-02T03:00:00Z,30.6671,-87.9365,2.315,1.01,1111122 
DISL,ioos:station:DISL:MHPA:1,2012-06-02T03:30:00Z,30.6671,-87.9365,2.251,1.01,1111122 
DISL,ioos:station:DISL:MHPA:1,2012-06-02T04:00:00Z,30.6671,-87.9365,2.194,1.02,1111122 
DISL,ioos:station:DISL:MHPA:1,2012-06-02T04:30:00Z,30.6671,-87.9365,2.174,1.02,1111122 
DISL,ioos:station:DISL:MHPA:1,2012-06-02T05:00:00Z,30.6671,-87.9365,2.185,1.02,1111122 
DISL,ioos:station:DISL:MHPA:1,2012-06-02T05:30:00Z,30.6671,-87.9365,2.187,1.02,1111122 
DISL,ioos:station:DISL:MHPA:1,2012-06-02T06:00:00Z,30.6671,-87.9365,2.228,1.02,1111122 
DISL,ioos:station:DISL:MHPA:1,2012-06-02T06:30:00Z,30.6671,-87.9365,2.297,1.02,1111122 
DISL,ioos:station:DISL:MHPA:1,2012-06-02T07:00:00Z,30.6671,-87.9365,2.371,1.02,1111122 
DISL,ioos:station:DISL:MHPA:1,2012-06-02T07:30:00Z,30.6671,-87.9365,2.468,1.02,1111122 
DISL,ioos:station:DISL:MHPA:1,2012-06-02T08:00:00Z,30.6671,-87.9365,2.587,1.02,1111122 
DISL,ioos:station:DISL:MHPA:1,2012-06-02T08:30:00Z,30.6671,-87.9365,2.713,1.02,1111122 
DISL,ioos:station:DISL:MHPA:1,2012-06-02T09:00:00Z,30.6671,-87.9365,2.845,1.03,1111122 
DISL,ioos:station:DISL:MHPA:1,2012-06-02T09:30:00Z,30.6671,-87.9365,2.984,1.03,1111122 
DISL,ioos:station:DISL:MHPA:1,2012-06-02T10:00:00Z,30.6671,-87.9365,3.131,1.04,1111122 
DISL,ioos:station:DISL:MHPA:1,2012-06-02T10:30:00Z,30.6671,-87.9365,3.275,1.05,1111122 
DISL,ioos:station:DISL:MHPA:1,2012-06-02T11:00:00Z,30.6671,-87.9365,3.443,1.05,1111122 
DISL,ioos:station:DISL:MHPA:1,2012-06-02T11:30:00Z,30.6671,-87.9365,3.594,1.06,1111122 
DISL,ioos:station:DISL:MHPA:1,2012-06-02T12:00:00Z,30.6671,-87.9365,3.728,1.06,1111122 
DISL,ioos:station:DISL:MHPA:1,2012-06-02T12:30:00Z,30.6671,-87.9365,3.9,1.04,1111122 
DISL,ioos:station:DISL:MHPA:1,2012-06-02T13:00:00Z,30.6671,-87.9365,4.06,1.06,1111122 
DISL,ioos:station:DISL:MHPA:1,2012-06-02T13:30:00Z,30.6671,-87.9365,4.19,1.03,1111122 
DISL,ioos:station:DISL:MHPA:1,2012-06-02T14:00:00Z,30.6671,-87.9365,4.311,1.03,1111122 
DISL,ioos:station:DISL:MHPA:1,2012-06-02T14:30:00Z,30.6671,-87.9365,4.392,1.01,1111122 
DISL,ioos:station:DISL:MHPA:1,2012-06-02T15:00:00Z,30.6671,-87.9365,4.486,1.05,1111122 
DISL,ioos:station:DISL:MHPA:1,2012-06-02T15:30:00Z,30.6671,-87.9365,4.516,1.02,1111122 
DISL,ioos:station:DISL:MHPA:1,2012-06-02T16:00:00Z,30.6671,-87.9365,4.519,1.04,1111122 
DISL,ioos:station:DISL:MHPA:1,2012-06-02T16:30:00Z,30.6671,-87.9365,4.525,1.03,1111122 
DISL,ioos:station:DISL:MHPA:1,2012-06-02T17:00:00Z,30.6671,-87.9365,4.501,1.02,1111122 
DISL,ioos:station:DISL:MHPA:1,2012-06-02T17:30:00Z,30.6671,-87.9365,4.472,1.06,1111122 
DISL,ioos:station:DISL:MHPA:1,2012-06-02T18:00:00Z,30.6671,-87.9365,4.393,1.15,1111122 
DISL,ioos:station:DISL:MHPA:1,2012-06-02T18:30:00Z,30.6671,-87.9365,4.271,1.07,1111122 
DISL,ioos:station:DISL:MHPA:1,2012-06-02T19:00:00Z,30.6671,-87.9365,4.135,1.08,1111122 
DISL,ioos:station:DISL:MHPA:1,2012-06-02T19:30:00Z,30.6671,-87.9365,3.985,1.09,1111122 
DISL,ioos:station:DISL:MHPA:1,2012-06-02T20:00:00Z,30.6671,-87.9365,3.84,1.1,1111122 
DISL,ioos:station:DISL:MHPA:1,2012-06-02T20:30:00Z,30.6671,-87.9365,3.686,1.08,1111122 
DISL,ioos:station:DISL:MHPA:1,2012-06-02T21:00:00Z,30.6671,-87.9365,3.557,1.09,1111122 
DISL,ioos:station:DISL:MHPA:1,2012-06-02T21:30:00Z,30.6671,-87.9365,3.422,1.11,1111122 
DISL,ioos:station:DISL:MHPA:1,2012-06-02T22:00:00Z,30.6671,-87.9365,3.293,1.07,1111122 
DISL,ioos:station:DISL:MHPA:1,2012-06-02T22:30:00Z,30.6671,-87.9365,3.177,1.1,1111122 
DISL,ioos:station:DISL:MHPA:1,2012-06-02T23:00:00Z,30.6671,-87.9365,3.075,1.08,1111122 
DISL,ioos:station:DISL:MHPA:1,2012-06-02T23:30:00Z,30.6671,-87.9365,2.975,1.09,1111122 
DISL,ioos:station:DISL:MHPA:1,2012-06-03T00:00:00Z,30.6671,-87.9365,2.883,1.1,1111122 
DISL,ioos:station:DISL:MHPA:1,2012-06-03T00:30:00Z,30.6671,-87.9365,2.8,1.08,1111122 
DISL,ioos:station:DISL:MHPA:1,2012-06-03T01:00:00Z,30.6671,-87.9365,2.735,1.07,1111122 
DISL,ioos:station:DISL:MHPA:1,2012-06-03T01:30:00Z,30.6671,-87.9365,2.727,1.07,1111122 
DISL,ioos:station:DISL:MHPA:1,2012-06-03T02:00:00Z,30.6671,-87.9365,2.712,1.07,1111122 
DISL,ioos:station:DISL:MHPA:1,2012-06-03T02:30:00Z,30.6671,-87.9365,2.648,1.07,1111122 
DISL,ioos:station:DISL:MHPA:1,2012-06-03T03:00:00Z,30.6671,-87.9365,2.576,1.08,1111122 
DISL,ioos:station:DISL:MHPA:1,2012-06-03T03:30:00Z,30.6671,-87.9365,2.518,1.1,1111122 
DISL,ioos:station:DISL:MHPA:1,2012-06-03T04:00:00Z,30.6671,-87.9365,2.487,1.11,1111122 
DISL,ioos:station:DISL:MHPA:1,2012-06-03T04:30:00Z,30.6671,-87.9365,2.477,1.11,1111122 
DISL,ioos:station:DISL:MHPA:1,2012-06-03T05:00:00Z,30.6671,-87.9365,2.49,1.1,1111122 
DISL,ioos:station:DISL:MHPA:1,2012-06-03T05:30:00Z,30.6671,-87.9365,2.536,1.09,1111122 
DISL,ioos:station:DISL:MHPA:1,2012-06-03T06:00:00Z,30.6671,-87.9365,2.625,1.09,1111122 
DISL,ioos:station:DISL:MHPA:1,2012-06-03T06:30:00Z,30.6671,-87.9365,2.761,1.09,1111122 
DISL,ioos:station:DISL:MHPA:1,2012-06-03T07:00:00Z,30.6671,-87.9365,2.939,1.09,1111122 
DISL,ioos:station:DISL:MHPA:1,2012-06-03T07:30:00Z,30.6671,-87.9365,3.134,1.09,1111122 
DISL,ioos:station:DISL:MHPA:1,2012-06-03T08:00:00Z,30.6671,-87.9365,3.315,1.1,1111122 
DISL,ioos:station:DISL:MHPA:1,2012-06-03T08:30:00Z,30.6671,-87.9365,3.471,1.11,1111122 
DISL,ioos:station:DISL:MHPA:1,2012-06-03T09:00:00Z,30.6671,-87.9365,3.594,1.12,1111122 
DISL,ioos:station:DISL:MHPA:1,2012-06-03T09:30:00Z,30.6671,-87.9365,3.681,1.16,1111122 
DISL,ioos:station:DISL:MHPA:1,2012-06-03T10:00:00Z,30.6671,-87.9365,3.741,1.23,1111122 
DISL,ioos:station:DISL:MHPA:1,2012-06-03T10:30:00Z,30.6671,-87.9365,3.82,1.21,1111122 
DISL,ioos:station:DISL:MHPA:1,2012-06-03T11:00:00Z,30.6671,-87.9365,3.95,1.2,1111122 
DISL,ioos:station:DISL:MHPA:1,2012-06-03T11:30:00Z,30.6671,-87.9365,4.041,1.17,1111122 
DISL,ioos:station:DISL:MHPA:1,2012-06-03T12:00:00Z,30.6671,-87.9365,4.13,1.09,1111122 
DISL,ioos:station:DISL:MHPA:1,2012-06-03T12:30:00Z,30.6671,-87.9365,4.24,1.13,1111122 
DISL,ioos:station:DISL:MHPA:1,2012-06-03T13:00:00Z,30.6671,-87.9365,4.356,1.16,1111122 
DISL,ioos:station:DISL:MHPA:1,2012-06-03T13:30:00Z,30.6671,-87.9365,4.459,1.17,1111122 
DISL,ioos:station:DISL:MHPA:1,2012-06-03T14:00:00Z,30.6671,-87.9365,4.56,1.17,1111122 
DISL,ioos:station:DISL:MHPA:1,2012-06-03T14:30:00Z,30.6671,-87.9365,4.662,1.19,1111122 
DISL,ioos:station:DISL:MHPA:1,2012-06-03T15:00:00Z,30.6671,-87.9365,4.699,1.22,1111122 
DISL,ioos:station:DISL:MHPA:1,2012-06-03T15:30:00Z,30.6671,-87.9365,4.74,1.18,1111122 
DISL,ioos:station:DISL:MHPA:1,2012-06-03T16:00:00Z,30.6671,-87.9365,4.752,1.18,1111122 
DISL,ioos:station:DISL:MHPA:1,2012-06-03T16:30:00Z,30.6671,-87.9365,4.742,1.18,1111122 
DISL,ioos:station:DISL:MHPA:1,2012-06-03T17:00:00Z,30.6671,-87.9365,4.747,1.17,1111122 
DISL,ioos:station:DISL:MHPA:1,2012-06-03T17:30:00Z,30.6671,-87.9365,4.727,1.16,1111122 
DISL,ioos:station:DISL:MHPA:1,2012-06-03T18:00:00Z,30.6671,-87.9365,4.717,1.11,1111122 
DISL,ioos:station:DISL:MHPA:1,2012-06-03T18:30:00Z,30.6671,-87.9365,4.715,1.11,1111122 
DISL,ioos:station:DISL:MHPA:1,2012-06-03T19:00:00Z,30.6671,-87.9365,4.648,1.11,1111122 
DISL,ioos:station:DISL:MHPA:1,2012-06-03T19:30:00Z,30.6671,-87.9365,4.541,1.11,1111122 
DISL,ioos:station:DISL:MHPA:1,2012-06-03T20:00:00Z,30.6671,-87.9365,4.398,1.12,1111122 
DISL,ioos:station:DISL:MHPA:1,2012-06-03T20:30:00Z,30.6671,-87.9365,4.26,1.12,1111122 
DISL,ioos:station:DISL:MHPA:1,2012-06-03T21:00:00Z,30.6671,-87.9365,4.104,1.11,1111122 
DISL,ioos:station:DISL:MHPA:1,2012-06-03T21:30:00Z,30.6671,-87.9365,3.96,1.11,1111122 
DISL,ioos:station:DISL:MHPA:1,2012-06-03T22:00:00Z,30.6671,-87.9365,3.822,1.1,1111122 
DISL,ioos:station:DISL:MHPA:1,2012-06-03T22:30:00Z,30.6671,-87.9365,3.693,1.1,1111122 
DISL,ioos:station:DISL:MHPA:1,2012-06-03T23:00:00Z,30.6671,-87.9365,3.585,1.1,1111122 
DISL,ioos:station:DISL:MHPA:1,2012-06-03T23:30:00Z,30.6671,-87.9365,3.46,1.1,1111122 
DISL,ioos:station:DISL:MHPA:1,2012-06-04T00:00:00Z,30.6671,-87.9365,3.317,1.1,1111122 
DISL,ioos:station:DISL:MHPA:1,2012-06-04T00:30:00Z,30.6671,-87.9365,3.19,1.11,1111122 
DISL,ioos:station:DISL:MHPA:1,2012-06-04T01:00:00Z,30.6671,-87.9365,3.073,1.1,1111122 
DISL,ioos:station:DISL:MHPA:1,2012-06-04T01:30:00Z,30.6671,-87.9365,2.965,1.09,1111122 
DISL,ioos:station:DISL:MHPA:1,2012-06-04T02:00:00Z,30.6671,-87.9365,2.872,1.1,1111122 
DISL,ioos:station:DISL:MHPA:1,2012-06-04T02:30:00Z,30.6671,-87.9365,2.79,1.1,1111122 
DISL,ioos:station:DISL:MHPA:1,2012-06-04T03:00:00Z,30.6671,-87.9365,2.729,1.1,1111122 
DISL,ioos:station:DISL:MHPA:1,2012-06-04T03:30:00Z,30.6671,-87.9365,2.683,1.11,1111122 
DISL,ioos:station:DISL:MHPA:1,2012-06-04T04:00:00Z,30.6671,-87.9365,2.671,1.12,1111122 
DISL,ioos:station:DISL:MHPA:1,2012-06-04T04:30:00Z,30.6671,-87.9365,2.703,1.12,1111122 
DISL,ioos:station:DISL:MHPA:1,2012-06-04T05:00:00Z,30.6671,-87.9365,2.742,1.13,1111122 
DISL,ioos:station:DISL:MHPA:1,2012-06-04T05:30:00Z,30.6671,-87.9365,2.753,1.13,1111122 
DISL,ioos:station:DISL:MHPA:1,2012-06-04T06:00:00Z,30.6671,-87.9365,2.79,1.13,1111122 
DISL,ioos:station:DISL:MHPA:1,2012-06-04T06:30:00Z,30.6671,-87.9365,2.856,1.13,1111122 
DISL,ioos:station:DISL:MHPA:1,2012-06-04T07:00:00Z,30.6671,-87.9365,2.951,1.14,1111122 
DISL,ioos:station:DISL:MHPA:1,2012-06-04T07:30:00Z,30.6671,-87.9365,3.067,1.13,1111122 
DISL,ioos:station:DISL:MHPA:1,2012-06-04T08:00:00Z,30.6671,-87.9365,3.22,1.14,1111122 
DISL,ioos:station:DISL:MHPA:1,2012-06-04T08:30:00Z,30.6671,-87.9365,3.36,1.15,1111122 
DISL,ioos:station:DISL:MHPA:1,2012-06-04T09:00:00Z,30.6671,-87.9365,3.477,1.15,1111122 
DISL,ioos:station:DISL:MHPA:1,2012-06-04T09:30:00Z,30.6671,-87.9365,3.608,1.14,1111122 
DISL,ioos:station:DISL:MHPA:1,2012-06-04T10:00:00Z,30.6671,-87.9365,3.742,1.14,1111122 
DISL,ioos:station:DISL:MHPA:1,2012-06-04T10:30:00Z,30.6671,-87.9365,3.83,1.15,1111122 
DISL,ioos:station:DISL:MHPA:1,2012-06-04T11:00:00Z,30.6671,-87.9365,3.894,1.18,1111122 
DISL,ioos:station:DISL:MHPA:1,2012-06-04T11:30:00Z,30.6671,-87.9365,3.949,1.21,1111122 
DISL,ioos:station:DISL:MHPA:1,2012-06-04T12:00:00Z,30.6671,-87.9365,4.059,1.19,1111122 
DISL,ioos:station:DISL:MHPA:1,2012-06-04T12:30:00Z,30.6671,-87.9365,4.174,1.19,1111122 
DISL,ioos:station:DISL:MHPA:1,2012-06-04T13:00:00Z,30.6671,-87.9365,4.283,1.2,1111122 
DISL,ioos:station:DISL:MHPA:1,2012-06-04T13:30:00Z,30.6671,-87.9365,4.389,1.19,1111122 
DISL,ioos:station:DISL:MHPA:1,2012-06-04T14:00:00Z,30.6671,-87.9365,4.495,1.19,1111122 
DISL,ioos:station:DISL:MHPA:1,2012-06-04T14:30:00Z,30.6671,-87.9365,4.597,1.22,1111122 
DISL,ioos:station:DISL:MHPA:1,2012-06-04T15:00:00Z,30.6671,-87.9365,4.678,1.23,1111122 
DISL,ioos:station:DISL:MHPA:1,2012-06-04T15:30:00Z,30.6671,-87.9365,4.754,1.21,1111122 
DISL,ioos:station:DISL:MHPA:1,2012-06-04T16:00:00Z,30.6671,-87.9365,4.82,1.21,1111122 
DISL,ioos:station:DISL:MHPA:1,2012-06-04T16:30:00Z,30.6671,-87.9365,4.839,1.22,1111122 
DISL,ioos:station:DISL:MHPA:1,2012-06-04T17:00:00Z,30.6671,-87.9365,4.837,1.21,1111122 
DISL,ioos:station:DISL:MHPA:1,2012-06-04T17:30:00Z,30.6671,-87.9365,4.788,1.21,1111122 
DISL,ioos:station:DISL:MHPA:1,2012-06-04T18:00:00Z,30.6671,-87.9365,4.719,1.22,1111122 
DISL,ioos:station:DISL:MHPA:1,2012-06-04T18:30:00Z,30.6671,-87.9365,4.623,1.22,1111122 
DISL,ioos:station:DISL:MHPA:1,2012-06-04T19:00:00Z,30.6671,-87.9365,4.516,1.24,1111122 
DISL,ioos:station:DISL:MHPA:1,2012-06-04T19:30:00Z,30.6671,-87.9365,4.389,1.25,1111122 
DISL,ioos:station:DISL:MHPA:1,2012-06-04T20:00:00Z,30.6671,-87.9365,4.291,1.24,1111122 
DISL,ioos:station:DISL:MHPA:1,2012-06-04T20:30:00Z,30.6671,-87.9365,4.184,1.25,1111122 
DISL,ioos:station:DISL:MHPA:1,2012-06-04T21:00:00Z,30.6671,-87.9365,4.064,1.25,1111122 
DISL,ioos:station:DISL:MHPA:1,2012-06-04T21:30:00Z,30.6671,-87.9365,4.003,1.23,1111122 
DISL,ioos:station:DISL:MHPA:1,2012-06-04T22:00:00Z,30.6671,-87.9365,3.938,1.21,1111122 
DISL,ioos:station:DISL:MHPA:1,2012-06-04T22:30:00Z,30.6671,-87.9365,3.847,1.21,1111122 
DISL,ioos:station:DISL:MHPA:1,2012-06-04T23:00:00Z,30.6671,-87.9365,3.725,1.2,1111122 
DISL,ioos:station:DISL:MHPA:1,2012-06-04T23:30:00Z,30.6671,-87.9365,3.602,1.2,1111122 
DISL,ioos:station:DISL:MHPA:1,2012-06-05T00:00:00Z,30.6671,-87.9365,3.477,1.2,1111122 
DISL,ioos:station:DISL:MHPA:1,2012-06-05T00:30:00Z,30.6671,-87.9365,3.375,1.2,1111122 
DISL,ioos:station:DISL:MHPA:1,2012-06-05T01:00:00Z,30.6671,-87.9365,3.295,1.21,1111122 
DISL,ioos:station:DISL:MHPA:1,2012-06-05T01:30:00Z,30.6671,-87.9365,3.186,1.2,1111122 
DISL,ioos:station:DISL:MHPA:1,2012-06-05T02:00:00Z,30.6671,-87.9365,3.075,1.2,1111122 
DISL,ioos:station:DISL:MHPA:1,2012-06-05T02:30:00Z,30.6671,-87.9365,2.974,1.19,1111122 
DISL,ioos:station:DISL:MHPA:1,2012-06-05T03:00:00Z,30.6671,-87.9365,2.895,1.19,1111122 
DISL,ioos:station:DISL:MHPA:1,2012-06-05T03:30:00Z,30.6671,-87.9365,2.829,1.2,1111122 
DISL,ioos:station:DISL:MHPA:1,2012-06-05T04:00:00Z,30.6671,-87.9365,2.762,1.2,1111122 
DISL,ioos:station:DISL:MHPA:1,2012-06-05T04:30:00Z,30.6671,-87.9365,2.697,1.2,1111122 
DISL,ioos:station:DISL:MHPA:1,2012-06-05T05:00:00Z,30.6671,-87.9365,2.639,1.2,1111122 
DISL,ioos:station:DISL:MHPA:1,2012-06-05T05:30:00Z,30.6671,-87.9365,2.59,1.21,1111122 
DISL,ioos:station:DISL:MHPA:1,2012-06-05T06:00:00Z,30.6671,-87.9365,2.535,1.21,1111122 
DISL,ioos:station:DISL:MHPA:1,2012-06-05T06:30:00Z,30.6671,-87.9365,2.512,1.2,1111122 
DISL,ioos:station:DISL:MHPA:1,2012-06-05T07:00:00Z,30.6671,-87.9365,2.573,1.2,1111122 
DISL,ioos:station:DISL:MHPA:1,2012-06-05T07:30:00Z,30.6671,-87.9365,2.663,1.2,1111122 
DISL,ioos:station:DISL:MHPA:1,2012-06-05T08:00:00Z,30.6671,-87.9365,2.79,1.22,1111122 
DISL,ioos:station:DISL:MHPA:1,2012-06-05T08:30:00Z,30.6671,-87.9365,2.963,1.23,1111122 
DISL,ioos:station:DISL:MHPA:1,2012-06-05T09:00:00Z,30.6671,-87.9365,3.125,1.24,1111122 
DISL,ioos:station:DISL:MHPA:1,2012-06-05T09:30:00Z,30.6671,-87.9365,3.255,1.3,1111122 
DISL,ioos:station:DISL:MHPA:1,2012-06-05T10:00:00Z,30.6671,-87.9365,3.394,1.27,1111122 
DISL,ioos:station:DISL:MHPA:1,2012-06-05T10:30:00Z,30.6671,-87.9365,3.538,1.33,1111122 
DISL,ioos:station:DISL:MHPA:1,2012-06-05T11:00:00Z,30.6671,-87.9365,3.623,1.32,1111122 
DISL,ioos:station:DISL:MHPA:1,2012-06-05T11:30:00Z,30.6671,-87.9365,3.708,1.26,1111122 
DISL,ioos:station:DISL:MHPA:1,2012-06-05T12:00:00Z,30.6671,-87.9365,3.846,1.28,1111122 
DISL,ioos:station:DISL:MHPA:1,2012-06-05T12:30:00Z,30.6671,-87.9365,3.94,1.27,1111122 
DISL,ioos:station:DISL:MHPA:1,2012-06-05T13:00:00Z,30.6671,-87.9365,4.043,1.27,1111122 
DISL,ioos:station:DISL:MHPA:1,2012-06-05T13:30:00Z,30.6671,-87.9365,4.208,1.28,1111122 
DISL,ioos:station:DISL:MHPA:1,2012-06-05T14:00:00Z,30.6671,-87.9365,4.369,1.3,1111122 
DISL,ioos:station:DISL:MHPA:1,2012-06-05T14:30:00Z,30.6671,-87.9365,4.485,1.28,1111122 
DISL,ioos:station:DISL:MHPA:1,2012-06-05T15:00:00Z,30.6671,-87.9365,4.617,1.28,1111122 
DISL,ioos:station:DISL:MHPA:1,2012-06-05T15:30:00Z,30.6671,-87.9365,4.746,1.29,1111122 
DISL,ioos:station:DISL:MHPA:1,2012-06-05T16:00:00Z,30.6671,-87.9365,4.842,1.28,1111122 
DISL,ioos:station:DISL:MHPA:1,2012-06-05T16:30:00Z,30.6671,-87.9365,4.928,1.29,1111122 
DISL,ioos:station:DISL:MHPA:1,2012-06-05T17:00:00Z,30.6671,-87.9365,5.036,1.3,1111122 
DISL,ioos:station:DISL:MHPA:1,2012-06-05T17:30:00Z,30.6671,-87.9365,5.079,1.29,1111122 
DISL,ioos:station:DISL:MHPA:1,2012-06-05T18:00:00Z,30.6671,-87.9365,5.096,1.3,1111122 
DISL,ioos:station:DISL:MHPA:1,2012-06-05T18:30:00Z,30.6671,-87.9365,5.195,1.3,1111122 
DISL,ioos:station:DISL:MHPA:1,2012-06-05T19:00:00Z,30.6671,-87.9365,5.291,1.31,1111122 
DISL,ioos:station:DISL:MHPA:1,2012-06-05T19:30:00Z,30.6671,-87.9365,5.364,1.29,1111122 
DISL,ioos:station:DISL:MHPA:1,2012-06-05T20:00:00Z,30.6671,-87.9365,5.347,1.3,1111122 
DISL,ioos:station:DISL:MHPA:1,2012-06-05T20:30:00Z,30.6671,-87.9365,5.251,1.29,1111122 
DISL,ioos:station:DISL:MHPA:1,2012-06-05T21:00:00Z,30.6671,-87.9365,5.257,1.27,1111122 
DISL,ioos:station:DISL:MHPA:1,2012-06-05T21:30:00Z,30.6671,-87.9365,5.284,1.3,1111122 
DISL,ioos:station:DISL:MHPA:1,2012-06-05T22:00:00Z,30.6671,-87.9365,5.179,1.32,1111122 
DISL,ioos:station:DISL:MHPA:1,2012-06-05T22:30:00Z,30.6671,-87.9365,5.068,1.32,1111122 
DISL,ioos:station:DISL:MHPA:1,2012-06-05T23:00:00Z,30.6671,-87.9365,5.01,1.3,1111122 
DISL,ioos:station:DISL:MHPA:1,2012-06-05T23:30:00Z,30.6671,-87.9365,4.775,1.35,1111122 
DISL,ioos:station:DISL:MHPA:1,2012-06-06T00:00:00Z,30.6671,-87.9365,4.516,1.35,1111122 
DISL,ioos:station:DISL:MHPA:1,2012-06-06T00:30:00Z,30.6671,-87.9365,4.282,1.31,1111122 
DISL,ioos:station:DISL:MHPA:1,2012-06-06T01:00:00Z,30.6671,-87.9365,4.135,1.32,1111122 
DISL,ioos:station:DISL:MHPA:1,2012-06-06T01:30:00Z,30.6671,-87.9365,3.913,1.35,1111122 
DISL,ioos:station:DISL:MHPA:1,2012-06-06T02:00:00Z,30.6671,-87.9365,3.747,1.35,1111122 
DISL,ioos:station:DISL:MHPA:1,2012-06-06T02:30:00Z,30.6671,-87.9365,3.654,1.33,1111122 
DISL,ioos:station:DISL:MHPA:1,2012-06-06T03:00:00Z,30.6671,-87.9365,3.579,1.32,1111122 
DISL,ioos:station:DISL:MHPA:1,2012-06-06T03:30:00Z,30.6671,-87.9365,3.491,1.32,1111122 
DISL,ioos:station:DISL:MHPA:1,2012-06-06T04:00:00Z,30.6671,-87.9365,3.404,1.35,1111122 
DISL,ioos:station:DISL:MHPA:1,2012-06-06T04:30:00Z,30.6671,-87.9365,3.312,1.38,1111122 
DISL,ioos:station:DISL:MHPA:1,2012-06-06T05:00:00Z,30.6671,-87.9365,3.193,1.37,1111122 
DISL,ioos:station:DISL:MHPA:1,2012-06-06T05:30:00Z,30.6671,-87.9365,3.07,1.35,1111122 
DISL,ioos:station:DISL:MHPA:1,2012-06-06T06:00:00Z,30.6671,-87.9365,2.961,1.34,1111122 
DISL,ioos:station:DISL:MHPA:1,2012-06-06T06:30:00Z,30.6671,-87.9365,2.882,1.35,1111122 
DISL,ioos:station:DISL:MHPA:1,2012-06-06T07:00:00Z,30.6671,-87.9365,2.816,1.32,1111122 
DISL,ioos:station:DISL:MHPA:1,2012-06-06T07:30:00Z,30.6671,-87.9365,2.765,1.33,1111122 
DISL,ioos:station:DISL:MHPA:1,2012-06-06T08:00:00Z,30.6671,-87.9365,2.721,1.33,1111122 
DISL,ioos:station:DISL:MHPA:1,2012-06-06T08:30:00Z,30.6671,-87.9365,2.711,1.33,1111122 
DISL,ioos:station:DISL:MHPA:1,2012-06-06T09:00:00Z,30.6671,-87.9365,2.773,1.34,1111122 
DISL,ioos:station:DISL:MHPA:1,2012-06-06T09:30:00Z,30.6671,-87.9365,2.858,1.34,1111122 
DISL,ioos:station:DISL:MHPA:1,2012-06-06T10:00:00Z,30.6671,-87.9365,2.97,1.35,1111122 
DISL,ioos:station:DISL:MHPA:1,2012-06-06T10:30:00Z,30.6671,-87.9365,3.099,1.35,1111122 
DISL,ioos:station:DISL:MHPA:1,2012-06-06T11:00:00Z,30.6671,-87.9365,3.242,1.35,1111122 
DISL,ioos:station:DISL:MHPA:1,2012-06-06T11:30:00Z,30.6671,-87.9365,3.372,1.35,1111122 
DISL,ioos:station:DISL:MHPA:1,2012-06-06T12:00:00Z,30.6671,-87.9365,3.479,1.35,1111122 
DISL,ioos:station:DISL:MHPA:1,2012-06-06T12:30:00Z,30.6671,-87.9365,3.626,1.36,1111122 
DISL,ioos:station:DISL:MHPA:1,2012-06-06T13:00:00Z,30.6671,-87.9365,3.76,1.37,1111122 
DISL,ioos:station:DISL:MHPA:1,2012-06-06T13:30:00Z,30.6671,-87.9365,3.901,1.41,1111122 
DISL,ioos:station:DISL:MHPA:1,2012-06-06T14:00:00Z,30.6671,-87.9365,4.008,1.36,1111122 
DISL,ioos:station:DISL:MHPA:1,2012-06-06T14:30:00Z,30.6671,-87.9365,4.123,1.35,1111122 
DISL,ioos:station:DISL:MHPA:1,2012-06-06T15:00:00Z,30.6671,-87.9365,4.229,1.39,1111122 
DISL,ioos:station:DISL:MHPA:1,2012-06-06T15:30:00Z,30.6671,-87.9365,4.363,1.36,1111122 